THORAD AGENA D DEB, 19363

Orbit data source: Space-Track

THORAD AGENA D DEB, 19363 is space debris in SSO originally from a launch on Wed, 08 Apr 1970 UTC launched from the Air Force Western Test Range (AFWTR). Debris objects in space refer to the collection of defunct objects orbiting the Earth. Examples of debris include non-operational satellites, rocket bodies, and fragments generated from explosions, collisions, or faulty payload assembly.

Loading next visibility...
Identifier
19363, 1970-025PY
Orbit
SSO
Country
Flag of USUS
Related business
Manufacturer
Unknown
Mission
Spacecraft
Bus & Motor
Unknown
Mass
Unknown
Launch date (UTC)
1970-04-08 (56 years ago)
Launch vehicle
Unknown
Launch site
Air Force Western Test Range (AFWTR)
Object type
Payload
Rocket body
Debris
Shape & HBR
Unknown shape, 0.1 m
Radar Cross Section
Medium (>0.1 m² and <1 m²)

Expand to show TLE details & history
Last TLE update: 1 day ago

TLE from 1 day ago
0 THORAD AGENA D DEB
1 19363U 70025PY  26255.35306512  .00000164  00000-0  27190-3 0  9994
2 19363 100.0394  33.5242 0005411 167.5066 220.5681 13.62471475708742
Epoch: 2026-09-12T08:28Z
TLE epoch observation values (Epoch: 2026-09-12T08:28:24.826Z)
Latitude
27.60926°
Longitude
-90.22758°
Altitude
1,033.043 km
Speed
7.336 km/s
True Right ascension
01h 52m 57s
True Declination
27° 28' 25"
Sunlit
Object was in full shadow at epoch
Visualization orbit readout
Latitude
Unknown
Longitude
Unknown
Altitude
Unknown
Speed
Unknown
Apparent Right ascension
Unknown
Apparent Declination
Unknown
Sunlit
N/A
Visualization observer readout
Local Sidereal Time
00:45:55
Azimuth
Unknown
Elevation
Unknown
Doppler factor
Unknown
Orbital elements
Apogee altitude
1,028.032 km
Perigee altitude
1,020.021 km
Semi-major axis
7,402.163 km
Eccentricity
0.00054
Inclination
100.0394°
RAAN
33.5242°
Arg. of periapsis
167.5066°
True anomaly
220.5278°
Mean anomaly
220.5681°
Eccentric anomaly
220.54795°
Mean motion
3.40804 °/min
Orbital period
105.63 mins
BSTAR
0.0002719
Loading maneuver chart data...
Computing Atmospheric mass density...

Documentation

Showing up to 5 results
|